User: anonymous   Login
Location: ??????
(41.3164°N, 22.6615°E)
Time: 12:19:41
(UTC+00:00)
Language:

CZ-2C R/B - Orbit

View from above orbital plane
View from above orbital plane
View from above satellite
View from above satellite

Ground track
Ground track

The orbit data is extracted from the following two-line orbital elements,

1 31114U 07010B   22272.88075850  .00000164  00000-0  95108-4 0  9992
2 31114  98.2509  78.8221 0059521 354.5554   5.4969 14.19451696801374
Epoch (UTC): 29 September 2022 21:08:17
Eccentricity: 0.0059521
inclination: 98.2509°
perigee height: 784 km
apogee height: 870 km
right ascension of ascending node: 78.8221°
argument of perigee: 354.5554°
revolutions per day: 14.19451696
mean anomaly at epoch: 5.4969°
orbit number at epoch: 80137

The dashed part of the orbit path shows where the satellite is in the earth's shadow,  

DLR